Weather History for LTAR - February, 2013

Change the Weather History Date:

Thursday, February 28, 2013

  Actual Average Record
Temperature  
Mean Temperature 34 °F -  
Max Temperature 41 °F 45 °F - ()
Min Temperature 26 °F 29 °F - ()
Degree Days  
Heating Degree Days 32    
Moisture  
Dew Point 29 °F    
Average Humidity 88    
Maximum Humidity 100    
Minimum Humidity 45    
Precipitation  
Precipitation 0.04 in 0.06 in - ()
Sea Level Pressure  
Sea Level Pressure 29.83 in    
Wind  
Wind Speed 8 mph ()    
Max Wind Speed 17 mph    
Max Gust Speed -    
Visibility 5.8 miles    
Events Fog , Rain , Snow    
T = Trace of Precipitation, MM = Missing Value Source: Averaged Metar Reports

Daily Weather History Graph

Daily Weather History Graph

Search for Another Location

Airport or City:

Trip Planner

Search our weather history database for the weather conditions in past years. The results will help you decide how hot, cold, wet, or windy it might be!

Date:

Astronomy

Feb. 28, 2013 Rise Set
Actual Time 6:07 AM EET 5:23 PM EET
Civil Twilight 5:40 AM EET 5:50 PM EET
Nautical Twilight 5:08 AM EET 6:21 PM EET
Astronomical Twilight 4:37 AM EET 6:53 PM EET
Moon 8:26 PM EET (2/28) 7:04 AM EET (2/28)
Length of Visible Light 12h 10m
Length of Day
11h 16m
Waning Gibbous, 93% of the Moon is Illuminated
Feb 28
Waning Gibbous
Mar 4
Last Quarter
Mar 11
New
Mar 19
First Quarter
Mar 27
Full

Hourly Weather History & Observations

Time (EET) Temp. Windchill Dew Point Humidity Pressure Visibility Wind Dir Wind Speed Gust Speed Precip Events Conditions
12:50 AM 32.0 °F 23.6 °F 32.0 °F 100% 29.86 in 6.2 mi SE 10.4 mph - N/A   Mostly Cloudy
1:50 AM 32.0 °F 24.8 °F 30.2 °F 93% 29.86 in 3.1 mi SSE 8.1 mph - N/A   Mostly Cloudy
2:50 AM 32.0 °F 27.5 °F 30.2 °F 93% 29.86 in 2.5 mi SSE 4.6 mph - N/A   Mostly Cloudy
3:50 AM 32.0 °F 26.4 °F 30.2 °F 93% 29.83 in 6.2 mi South 5.8 mph - N/A   Mostly Cloudy
4:50 AM 32.0 °F 25.6 °F 30.2 °F 93% 29.83 in 6.2 mi SW 6.9 mph - N/A   Mostly Cloudy
5:50 AM 32.0 °F - 30.2 °F 93% 29.83 in 6.2 mi Variable 2.3 mph - N/A   Mostly Cloudy
6:50 AM 32.0 °F - 30.2 °F 93% 29.83 in 2.2 mi Calm Calm - N/A   Mostly Cloudy
7:50 AM 32.0 °F 27.5 °F 32.0 °F 100% 29.83 in 0.6 mi West 4.6 mph - N/A Fog , Rain , Snow Light Snow Grains
8:00 AM 37 °F - 32 °F 75%  in 9 mi Calm Calm - -   Mostly Cloudy
8:50 AM 32.0 °F 24.2 °F 30.2 °F 93% 29.83 in - NNW 9.2 mph - N/A   Overcast
9:50 AM 32.0 °F 22.1 °F 30.2 °F 93% 29.83 in 3.7 mi NNW 13.8 mph - N/A Snow Light Snow
10:50 AM 32.0 °F 23.0 °F 30.2 °F 93% 29.83 in 6.2 mi North 11.5 mph - N/A   Mostly Cloudy
11:50 AM 33.8 °F 24.3 °F 30.2 °F 87% 29.83 in 6.2 mi North 13.8 mph - N/A   Mostly Cloudy
12:50 PM 33.8 °F 24.8 °F 28.4 °F 81% 29.80 in 6.2 mi NNE 12.7 mph - N/A   Mostly Cloudy
1:50 PM 33.8 °F 23.9 °F 28.4 °F 81% 29.80 in 6.2 mi NNE 15.0 mph - N/A   Mostly Cloudy
2:00 PM 41 °F - 27 °F 45%  in 9 mi NNE 4.6 mph - -   Partly Cloudy
2:50 PM 33.8 °F 24.3 °F 26.6 °F 75% 29.80 in 6.2 mi North 13.8 mph - N/A   Mostly Cloudy
3:50 PM 33.8 °F 23.9 °F 26.6 °F 75% 29.83 in 6.2 mi North 15.0 mph - N/A   Mostly Cloudy
4:50 PM 32.0 °F 22.1 °F 28.4 °F 87% 29.83 in 6.2 mi North 13.8 mph - N/A   Mostly Cloudy
5:50 PM 30.2 °F 20.8 °F 28.4 °F 93% 29.83 in 6.2 mi North 11.5 mph - N/A   Mostly Cloudy
6:50 PM 30.2 °F 20.8 °F 28.4 °F 93% 29.83 in 6.2 mi North 11.5 mph - N/A   Mostly Cloudy
7:50 PM 28.4 °F 19.7 °F 28.4 °F 100% 29.83 in 6.2 mi North 9.2 mph - N/A   Mostly Cloudy
8:00 PM 36 °F - 27 °F 59%  in 9 mi NNE 2.3 mph - -   Mostly Cloudy
8:50 PM 28.4 °F 16.6 °F 26.6 °F 93% 29.83 in 6.2 mi North 16.1 mph - N/A   Mostly Cloudy
9:50 PM 26.6 °F 13.8 °F 26.6 °F 100% 29.86 in 6.2 mi North 17.3 mph - N/A   Mostly Cloudy
10:50 PM 26.6 °F 15.2 °F 24.8 °F 93% 29.86 in 6.2 mi North 13.8 mph - N/A   Mostly Cloudy
11:50 PM 26.6 °F 17.5 °F 24.8 °F 93% 29.86 in 6.2 mi NNW 9.2 mph - N/A   Mostly Cloudy